Weather in Ridder

Kazakhstan     50°20′19″N   83°30′22″E
temp.,
°C
wind,
m/s
gust,
m/s
humid.,
%
clouds,
%
prec.,
mm/h
press.,
hPa
HPBL,
m
23 april, fri
fri2300:00−11ene3388100 1.8 103731
03:00−12e338155 0.0 103832
06:00−9ne238498 0.0 103779
09:00−5nne227462 0.0 1037486
12:00−3nnw2379100 0.2 1035888
15:00−3nnw3485100 1.9 1034686
18:00−3n238282 4.3 1034647
21:00−9e22885 0.3 103813
24 april, sat
sat2400:00−10e32824 0.3 103817
03:00−11e327987 0.0 103820
06:00−8e2281100 0.0 103632
09:00−4wnw2274100 0.0 1035560
12:00−2w2374100 0.1 10341003
15:00−1w336882 0.3 10321080
18:00−2wnw238195 0.7 1033562
21:00−6ene119410 0.2 103610
25 april, sun
sun2500:00−8e22905 0.2 103621
03:00−9e22855 0.0 103623
06:00−8e32824 0.0 103737
09:00−2ne11620 0.0 1033476
12:00+1w116028 0.0 10321034
15:00+2ese015990 0.0 10311066
18:00+1sw017290 0.0 1030148
21:00−3ese2281100 0.0 103213
26 april, mon
mon2600:00−3ese2276100 0.0 103215
03:00−3ese2275100 0.0 103120
06:00−3ese227475 0.0 103126
09:00+2s22645 0.0 1029438
12:00+3sse22686 0.0 1029733
15:00+4sse22635 0.0 1029700
18:00+3se2271100 0.0 1029126
21:00−1ese336636 0.0 103126
27 april, tue
tue2700:000ese436599 0.0 103038
03:000se446790 0.0 103046
06:00+1se4465100 0.0 103059
09:00+5sse3460100 0.0 1029205
12:00+8ssw1254100 0.0 1028899
15:00+7se3363100 0.0 1027490
18:00+6se337341 0.0 1027122
21:00+4ese337294 0.0 102834